Spokane, WA
on Sunday, January 27, 2013

Sunday
Previous Day Next Day
Daily Summary
 ActualAverageRecord
Temperature
Mean Temperature °F 31°F  
Max Temperature 31°F 36°F 54°F (1899)
Min Temperature 26°F 26°F -18°F (1957)
Degree Days
Heating Degree Days 36 34  
Month to date heating degree days 1116 963  
Since 1 July heating degree days 3541 3797  
Cooling Degree Days 0 0  
Month to date cooling degree days 0 0  
Year to date cooling degree days 0 0  
Moisture
Dew Point 26°F   
Average Humidity 96    
Maximum Humidity 100    
Minimum Humidity 92    
Precipitation
Precipitation 0.01 in 0.05 in 0.68 in (1954)
Month to date precipitation 1.46 1.60  
Year to date precipitation 1.46 1.60  
Snow
Snow 0.20 in 0.30 in 8.10 in (1954)
Month to date snowfall 12.5 10.3  
Since 1 July snowfall 36.5 32.4  
Snow Depth 1.00 in   
Wind
Wind Speed 7 mph   
Max Wind Speed 13 mph   
Max Gust Speed 76 mph   
Visibility 3 miles   
Events Snow   

Key: T is trace of precipitation, MM is missing value
Source: NWS Daily Summary
Time(PST)TemperatureDew PointHumidity Pressure Visibility Wind DirectionWind SpeedGust SpeedPrecipitationEvents Conditions
12:53 AM 28.9°F 28.0°F 96% 29.97 in 2.0 miles South 6.9 mph - 0.00 in   Light Freezing Drizzle
1:23 AM 30.2°F 28.4°F 93% 29.91 in 2.0 miles South 6.9 mph - 0.00 in Snow Light Freezing Drizzle
1:45 AM 28.4°F 26.6°F 93% 29.91 in 2.0 miles South 6.9 mph - 0.00 in Snow Light Snow
1:53 AM 28.9°F 27.0°F 92% 29.97 in 2.0 miles South 5.8 mph - 0.00 in Snow Light Snow
2:15 AM 28.4°F 26.6°F 93% 29.91 in 2.0 miles SSW 6.9 mph - 0.00 in Snow Light Snow
2:53 AM 28.0°F 26.1°F 92% 29.98 in 2.0 miles SW 8.1 mph - 0.00 in Snow Light Snow
3:27 AM 26.6°F 24.8°F 93% 29.92 in 2.0 miles SW 10.4 mph - 0.00 in Snow Light Snow
3:53 AM 27.0°F 26.1°F 96% 29.98 in 1.0 miles South 6.9 mph - 0.00 in Snow Light Snow
4:53 AM 27.0°F 26.1°F 96% 29.98 in 0.5 miles SSW 9.2 mph - 0.00 in Snow Light Snow
5:18 AM 26.6°F 24.8°F 93% 29.92 in 1.0 miles SW 10.4 mph - 0.00 in Snow Light Snow
5:42 AM 26.6°F 24.8°F 93% 29.92 in 0.5 miles South 9.2 mph - 0.00 in Snow Light Snow
5:53 AM 26.1°F 25.0°F 96% 30.00 in 0.2 miles South 9.2 mph - 0.00 in Snow Light Snow
6:53 AM 26.1°F 24.1°F 92% 30.00 in 1.0 miles SSW 10.4 mph - 0.00 in Snow Light Snow
7:53 AM 26.1°F 25.0°F 96% 30.01 in 0.2 miles SW 5.8 mph - 0.00 in Snow Light Snow
8:53 AM 27.0°F 25.0°F 92% 30.02 in 0.2 miles WSW 4.6 mph - 0.00 in Snow Light Snow
9:24 AM 26.6°F 24.8°F 93% 29.95 in 1.0 miles SW 6.9 mph - 0.00 in Snow Light Snow
9:36 AM 26.6°F 24.8°F 93% 29.96 in 1.0 miles WSW 5.8 mph - 0.00 in Snow Light Snow
9:53 AM 27.0°F 26.1°F 96% 30.03 in 1.0 miles SW 5.8 mph - 0.00 in Snow Light Snow
10:49 AM 28.4°F 26.6°F 93% 29.96 in 4.0 miles SSW 6.9 mph - 0.00 in Snow Light Snow
10:53 AM 28.0°F 25.0°F 88% 30.03 in 5.0 miles SW 4.6 mph - 0.00 in   Overcast
11:53 AM 28.9°F 26.1°F 89% 30.01 in 8.0 miles SW 4.6 mph - 0.00 in Snow Light Snow
12:53 PM 30.0°F 27.0°F 88% 30.00 in 6.0 miles SW 8.1 mph - 0.00 in Snow Light Snow
1:53 PM 28.9°F 27.0°F 92% 29.99 in 7.0 miles SSW 4.6 mph - 0.00 in Snow Light Snow
2:53 PM 28.9°F 27.0°F 92% 29.99 in 10.0 miles South 9.2 mph - 0.00 in   Overcast
3:53 PM 28.9°F 27.0°F 92% 29.99 in 7.0 miles SSW 9.2 mph - N/A   Overcast
4:42 PM 28.4°F 26.6°F 93% 29.92 in 2.0 miles SSW 9.2 mph - N/A   Overcast
4:53 PM 28.0°F 26.1°F 92% 30.00 in 2.0 miles South 8.1 mph - N/A   Overcast
5:53 PM 28.0°F 26.1°F 92% 30.00 in 2.0 miles SW 9.2 mph - N/A   Overcast
6:13 PM 28.4°F 26.6°F 93% 29.92 in 1.0 miles South 5.8 mph - N/A   Overcast
6:15 PM 28.4°F 26.6°F 93% 29.92 in 2.0 miles South 6.9 mph - N/A   Overcast
6:53 PM 28.9°F 26.1°F 89% 29.98 in 2.0 miles South 6.9 mph - N/A   Overcast
7:53 PM 28.9°F 27.0°F 92% 29.99 in 2.0 miles SW 9.2 mph - N/A   Overcast
8:53 PM 30.0°F 28.0°F 92% 29.98 in 2.0 miles South 3.5 mph - N/A   Overcast
9:53 PM 30.0°F 28.0°F 92% 29.98 in 2.0 miles South 3.5 mph - 0.00 in Snow Light Snow
10:53 PM 30.9°F 28.9°F 92% 29.97 in 5.0 miles SE 3.5 mph - 0.00 in   Overcast
11:33 PM 30.2°F 28.4°F 93% 29.90 in 2.0 miles SSE 3.5 mph - 0.01 in Snow Light Snow
11:53 PM 30.9°F 28.9°F 92% 29.96 in 2.0 miles South 5.8 mph - 0.01 in Snow Light Snow
Moon Phase
Jan. 27 Feb. 03 Feb. 10 Feb. 17 Feb. 25
Sunrise:07:22 AM (PST) Moon Rise:05:51 PM (PST)1/27
Sunset:04:44 PM (PST) Moon Set:07:11 AM (PST)1/27

Copyright © 2014 The Weather Underground, Inc.